TimeEST,TemperatureF,Dew PointF,Humidity,Sea Level PressureIn,VisibilityMPH,Wind Direction,Wind SpeedMPH,Gust SpeedMPH,PrecipitationIn,Events,Conditions,WindDirDegrees,DateUTC
12:53 AM,19.9,12.0,71,30.14,10.0,NNW,3.5,-,N/A,,Clear,340,2013-03-04 05:53:00
1:53 AM,18.0,10.9,74,30.14,10.0,Calm,Calm,-,N/A,,Clear,0,2013-03-04 06:53:00
2:53 AM,16.0,10.0,77,30.14,10.0,Calm,Calm,-,N/A,,Clear,0,2013-03-04 07:53:00
4:53 AM,12.9,8.1,81,30.16,10.0,Calm,Calm,-,N/A,,Clear,0,2013-03-04 09:53:00
5:53 AM,12.0,5.0,73,30.17,10.0,Calm,Calm,-,N/A,,Clear,0,2013-03-04 10:53:00
6:53 AM,12.0,6.1,77,30.18,10.0,Calm,Calm,-,N/A,,Clear,0,2013-03-04 11:53:00
7:53 AM,12.9,7.0,77,30.19,10.0,Calm,Calm,-,N/A,,Clear,0,2013-03-04 12:53:00
8:53 AM,18.0,12.0,78,30.19,10.0,East,3.5,-,N/A,,Clear,100,2013-03-04 13:53:00
9:53 AM,21.9,14.0,72,30.18,10.0,ESE,4.6,-,N/A,,Clear,110,2013-03-04 14:53:00
10:53 AM,24.1,14.0,65,30.18,10.0,East,4.6,-,N/A,,Clear,100,2013-03-04 15:53:00
11:53 AM,27.0,15.1,61,30.17,10.0,ENE,3.5,-,N/A,,Clear,70,2013-03-04 16:53:00
12:53 PM,28.9,17.1,61,30.15,10.0,Variable,4.6,-,N/A,,Clear,0,2013-03-04 17:53:00
1:53 PM,30.0,17.1,59,30.13,10.0,East,8.1,-,N/A,,Clear,90,2013-03-04 18:53:00
2:53 PM,30.0,17.1,59,30.12,10.0,East,6.9,-,N/A,,Clear,100,2013-03-04 19:53:00
3:53 PM,32.0,16.0,52,30.10,10.0,ENE,5.8,-,N/A,,Clear,70,2013-03-04 20:53:00
4:53 PM,33.1,17.1,52,30.11,10.0,East,8.1,-,N/A,,Clear,100,2013-03-04 21:53:00
5:53 PM,33.1,14.0,46,30.09,10.0,East,5.8,-,N/A,,Clear,80,2013-03-04 22:53:00
6:53 PM,32.0,15.1,50,30.10,10.0,East,4.6,-,N/A,,Clear,80,2013-03-04 23:53:00
7:53 PM,30.0,14.0,51,30.11,10.0,East,5.8,-,N/A,,Clear,80,2013-03-05 00:53:00
8:53 PM,28.9,12.9,51,30.11,10.0,East,5.8,-,N/A,,Partly Cloudy,90,2013-03-05 01:53:00
9:53 PM,28.0,14.0,56,30.12,10.0,East,4.6,-,N/A,,Partly Cloudy,80,2013-03-05 02:53:00
10:53 PM,27.0,14.0,58,30.13,10.0,East,4.6,-,N/A,,Clear,90,2013-03-05 03:53:00
11:53 PM,27.0,14.0,58,30.13,10.0,East,4.6,-,N/A,,Overcast,80,2013-03-05 04:53:00